Rbgn^[z[y[W
メイン
   新天体発見情報
     Comet C/2024 N4 (Sarneczky)
投稿するにはまず登録を

スレッド表示 | 新しいものから 前のトピック | 次のトピック | 下へ
投稿者 スレッド
佐藤裕久
投稿日時: 2024-7-29 0:15
モデレータ
登録日: 2005-6-12
居住地: 日本
投稿: 2585
オンライン
Comet C/2024 N4 (Sarneczky)

Krisztian Sarneczky (Konkoly天文台)の通報によると、7月14.97日UT、ハンガリーのPiszkesteto
天文台にある0.6-m Schmid望遠鏡で得た、w-バンドCCD画像から、ゆっくりと動く小伸の天体を発見
した。 この天体は、12枚の40-秒の発見画像と24枚の60-秒のフォローアップ画像は、明らかに小惑星
状であった。 翌夜(月15.96日)、同じ望遠鏡のフォローアップ観測をでは、良いシーイングで、3枚の
60-秒のブリンク画像で、この天体は直にはっきりと彗星状を見えた。 この彗星は集光した8"の円形
のコマがあり、縁は拡散しており、尾はない。
小惑星センターのPCCP webpageに公表後、他のCCD位置観測者によって彗星状と観測された。

彗星機能の報告は次のとおり、

OC   Date        Reporter           Coma    Tail    PA          Exposures
G00  2024-07-15  M. Jaeger         15"
U94  2024-07-17  H. Sato            8"                            14x60s
204  2024-07-18  A. Aletti          8"                           336x30s
K88  2024-07-19  K. Sarneczky       8"       10"    290-340       18x60s
J95  2024-07-22  P. Birtwhistle     8"                           148x12s

発見位置は次のとおり、

     2024 UT             R.A. (2000) Decl.       Mag.   Observer
     July 14.96106    5 41 35.77   +66 21 09.9   19.0   Sarneczky
          14.97026    5 41 37.24   +66 21 11.1   19.2     "
          14.97945    5 41 38.56   +66 21 12.2   18.9     "
          14.99494    5 41 40.67   +66 21 14.3   19.2     "
          15.00026    5 41 41.43   +66 21 14.2   19.1     "
          15.00557    5 41 42.07   +66 21 15.5   18.9     "
          15.01148    5 41 43.00   +66 21 15.9   18.9     "
          15.01680    5 41 43.74   +66 21 17.1   19.3     "
          15.02806    5 41 45.33   +66 21 18.3   18.9     "
          15.03382    5 41 46.12   +66 21 18.9   19.1     "

MPCの楕円軌道要素、位置推算表は次のとおり、

Orbital elements:
    C/2024 N4 (Sarneczky)                                                       
Epoch 2024 Oct. 17.0 TT = JDT 2460600.5                                         
T 2025 Jan. 11.50619 TT                                 Rudenko                 
q   5.3802475            (2000.0)            P               Q                  
z  +0.0057012      Peri.  116.87940     -0.22140213     -0.93762467             
 +/-0.0079736      Node   339.45925     +0.36905193     +0.17384929             
e   0.9693263      Incl.   49.80911     +0.90265263     -0.30105880             
From 72 observations 2024 July 14-22, mean residual 0".4.                       
                                                                                
Ephemeris:
Date    TT    R. A. (2000) Decl.     Delta      r    Elong.  Phase   m1
2024 06 24    04 52 50.4 +65 32 40   6.2629  5.5766    44.0     7.3  18.9
...
2024 07 09    05 27 42.3 +66 08 49   6.1932  5.5490    46.9     7.7  18.9
...
2024 07 17    05 46 20.2 +66 25 09   6.1470  5.5351    49.1     8.0  18.9
...
2024 07 23    06 00 14.5 +66 36 04   6.1083  5.5251    51.0     8.2  18.9
2024 07 24    06 02 33.0 +66 37 47   6.1016  5.5234    51.3     8.3  18.8
2024 07 25    06 04 51.2 +66 39 28   6.0948  5.5218    51.6     8.3  18.8
...
2024 07 31    06 18 36.2 +66 49 02   6.0518  5.5122    53.7     8.5  18.8
...
2024 08 08    06 36 39.2 +67 00 29   5.9898  5.4998    56.8     8.9  18.8
...
2024 08 23    07 09 13.6 +67 19 09   5.8600  5.4783    63.2     9.5  18.7

(MPEC 2024-O41、CBET 5421)

スレッド表示 | 新しいものから 前のトピック | 次のトピック | トップ

投稿するにはまず登録を
 
© 1999 Tsutomu Seki.